Temperature
13 14 14 14 14 14 14 14 14 14 14 14 14 14 14 14 13 13 14 14 14 14 14 14 14 14 14 15 15 15 15 15 15 15 14 14 14 14 14 14 14 14 14
14 14 14 14 14 14 14 14 14 14 14 14 14 14 14 14 14 13 13 13 13 14 14 14 14 14 14 14 15 15 15 15 14 14 14 14 14 14 14 14 14 14 14
13 14 14 14 14 14 14 14 14 14 14 14 14 13 13 13 13 13 13 13 13 13 13 14 14 14 14 14 14 14 14 14 14 14 14 14 14 14 13 14 14 14 14
13 13 14 14 14 14 14 14 14 14 14 14 13 13 13 13 13 13 13 13 13 13 13 13 14 14 14 14 14 14 14 14 14 14 13 13 13 13 13 13 13 13 13
13 13 13 13 13 13 13 13 13 13 13 13 13 13 13 13 13 13 13 13 13 13 13 13 13 13 14 14 14 14 14 14 13 13 13 13 13 13 13 13 13 13 13
12 13 13 13 13 13 13 13 13 13 13 13 13 13 13 13 13 13 13 13 13 13 13 13 13 13 14 14 14 14 14 13 13 13 13 13 13 13 13 13 13 13 13
12 12 13 13 13 13 13 13 13 13 13 13 13 12 12 12 13 13 13 13 13 13 13 13 13 13 13 13 13 13 13 13 13 13 13 13 13 13 13 13 13 13 13
12 12 12 12 12 12 12 12 12 12 12 12 12 12 12 12 12 12 13 13 12 12 12 13 13 13 13 13 13 13 13 13 13 13 12 13 12 12 12 12 12 12 13
12 12 12 12 12 12 12 12 12 12 12 12 12 12 12 12 12 12 12 12 12 12 12 12 12 12 12 12 13 13 12 12 12 12 12 12 12 12 12 12 12 12 12
11 11 11 11 11 11 11 11 11 11 11 11 11 12 12 12 12 12 12 12 12 12 12 12 12 12 12 12 12 12 12 12 12 12 12 12 12 12 12 12 12 12 12
11 11 11 11 11 11 11 11 11 11 11 11 11 11 11 11 11 11 11 11 12 12 11 11 11 11 11 12 12 11 11 11 11 11 11 11 11 11 11 11 11 11 12
11 11 11 11 10 10 10 10 10 11 11 11 11 11 11 11 11 11 11 11 11 11 11 11 11 11 11 11 11 11 11 11 11 11 11 11 11 11 11 11 11 11 11
11 11 10 10 10 10 10 10 10 10 10 10 10 10 10 10 10 10 11 11 10 11 11 11 10 10 10 10 10 10 10 10 10 10 11 11 11 11 11 11 11 11 11
10 10 10 10 10 10 10 10 10 10 10 10 10 10 10 10 10 10 10 10 10 10 10 10 10 10 10 10 10 10 10 10 10 10 10 10 10 10 10 10 10 10 10
10 10 9 9 9 9 9 9 9 9 9 9 9 9 9 9 9 10 10 10 10 10 9 10 9 9 9 10 9 10 10 9 9 10 10 10 10 10 10 10 10 10 10
9 9 9 9 9 9 9 9 9 9 9 9 9 9 9 9 9 9 9 9 9 9 9 9 9 9 9 9 9 9 9 9 9 9 9 9 9 9 10 10 10 9 9
9 9 9 9 9 9 9 8 8 9 9 9 9 9 9 9 9 9 9 9 9 9 9 9 9 9 8 9 9 9 9 9 9 9 9 9 9 9 9 9 9 9 9
9 9 9 8 8 8 8 8 8 8 8 8 8 8 8 8 8 8 8 8 8 8 8 8 8 8 8 8 8 8 8 8 8 8 8 9 9 9 9 9 9 9 9
8 8 8 8 8 8 8 8 8 8 8 8 8 8 8 8 8 8 8 8 8 8 8 8 8 8 8 8 8 8 8 8 8 8 8 8 8 8 8 8 9 9 8
8 8 8 8 7 7 7 7 7 7 7 7 7 7 7 7 8 7 7 7 7 7 7 7 7 7 7 7 7 7 7 7 8 8 8 8 8 8 8 8 8 8 8
7 7 7 7 7 7 7 7 7 7 7 7 7 7 7 7 7 7 7 7 7 6 6 6 6 6 7 6 6 7 7 7 7 7 7 7 7 7 7 8 8 7 8
7 7 7 7 6 6 6 6 6 6 6 6 6 6 6 6 6 6 6 6 6 6 6 6 6 6 6 6 6 6 5 6 7 7 7 7 7 7 7 7 7 7 7
6 6 6 6 6 6 6 6 6 6 6 6 6 6 6 6 6 6 6 6 6 6 6 5 5 5 5 5 5 5 5 5 5 6 6 6 6 6 6 6 6 7 7
6 6 6 6 6 5 6 6 6 6 5 5 5 5 5 5 5 5 5 5 5 5 5 5 5 5 5 5 5 5 5 5 5 5 5 5 5 5 6 6 6 6 6
6 6 6 5 5 5 5 5 5 5 5 5 5 4 5 5 5 5 5 5 5 5 5 5 4 5 4 4 4 4 4 4 4 4 4 5 5 5 5 5 5 6 5
5 5 5 5 5 5 5 5 5 4 4 4 4 4 4 4 4 4 4 4 4 4 4 4 4 4 4 4 4 4 4 4 4 4 4 4 4 4 5 5 5 5 5
Wind_Speed
7 9 9 9 9 9 9 9 9 9 9 9 9 9 9 10 9 9 9 9 9 9 9 9 9 9 9 10 10 10 9 9 9 8 9 8 8 8 8 8 8 7 8
8 11 10 9 9 8 8 9 9 9 8 8 8 9 9 9 9 9 8 8 8 9 9 8 8 8 8 9 9 8 8 8 7 6 6 6 6 7 8 8 7 6 7
9 11 11 9 9 9 8 8 8 8 8 7 8 8 8 8 8 8 8 8 7 8 8 8 8 7 7 7 8 8 7 7 6 5 4 3 5 6 6 6 6 6 6
10 11 10 9 9 8 8 8 7 7 7 7 7 7 7 7 7 7 8 8 7 7 7 7 7 7 7 7 7 7 7 7 7 7 5 4 5 6 5 6 5 5 5
9 11 10 10 9 8 7 7 7 7 6 6 6 6 6 6 6 7 7 7 7 6 6 6 6 6 6 6 6 6 6 7 7 7 6 6 6 5 5 5 5 4 5
9 11 11 9 8 7 6 6 6 6 6 5 5 5 5 6 5 6 6 6 6 5 5 6 5 5 5 5 5 5 6 7 8 7 6 6 6 5 4 4 4 4 4
8 10 10 9 8 7 6 5 5 5 5 5 4 4 5 5 5 5 5 5 5 4 4 5 5 5 4 4 4 5 6 8 6 5 5 6 5 4 4 4 5 5 4
7 9 9 8 7 6 5 4 4 4 4 4 4 4 4 4 4 4 4 4 4 5 3 3 4 4 4 4 4 4 6 7 6 5 4 5 4 4 3 4 4 4 4
7 7 7 6 5 5 5 4 3 2 3 3 3 3 3 3 3 4 4 4 4 5 4 3 3 3 3 3 4 5 6 7 6 4 3 3 3 3 3 3 4 4 4
6 5 5 4 4 3 3 3 2 2 2 2 2 2 2 2 2 2 3 3 3 4 4 3 3 3 3 3 4 5 6 7 5 4 2 2 2 2 2 3 3 4 4
4 4 3 3 3 2 2 2 2 1 1 0 1 1 2 1 1 1 1 2 2 3 4 4 3 4 4 4 5 6 6 4 3 2 1 1 1 2 3 3 3 4 4
3 2 3 2 2 2 1 2 2 1 1 1 1 0 1 1 1 1 0 1 2 3 4 4 4 4 4 4 5 6 4 4 3 2 1 1 1 2 3 3 3 4 4
3 2 2 2 1 1 1 1 1 1 1 1 0 0 1 0 1 0 0 1 1 2 3 4 4 4 3 3 3 3 3 3 2 1 1 2 2 3 4 4 5 5 5
3 2 2 1 1 0 0 0 1 0 0 0 0 1 0 1 1 1 0 1 1 1 2 2 3 3 3 3 4 3 3 2 2 1 1 2 4 4 5 5 5 6 6
3 3 2 1 1 0 1 1 1 0 0 0 1 1 1 0 1 1 1 1 2 2 2 2 2 3 2 3 3 3 3 3 2 2 1 3 4 5 5 6 6 7 7
2 2 2 1 1 0 1 1 1 0 1 1 1 1 2 1 1 1 1 1 2 2 3 3 3 3 2 2 3 2 2 3 2 2 2 3 4 5 5 6 6 7 7
2 3 2 1 1 0 1 1 1 1 1 1 1 1 1 1 1 1 1 1 2 3 3 3 3 2 2 2 3 3 2 2 2 2 2 2 2 3 4 5 6 7 7
2 2 3 2 1 1 1 1 1 1 1 1 1 1 1 2 2 2 1 1 2 3 2 2 2 2 2 2 3 3 2 2 3 3 2 1 1 1 2 5 6 7 8
2 2 2 2 2 1 1 1 1 1 1 1 1 1 1 2 2 2 1 2 2 2 2 2 2 2 2 3 3 3 2 2 3 3 2 1 1 1 1 3 5 7 8
2 2 2 2 2 1 1 1 1 1 1 1 0 1 2 2 2 2 2 2 2 2 2 2 2 2 2 2 3 3 3 3 3 2 2 1 1 2 1 2 2 4 6
2 2 2 2 2 1 1 1 1 1 1 1 1 1 2 2 2 2 2 2 2 2 2 2 2 2 2 2 1 3 4 4 3 2 2 1 1 1 1 1 1 2 3
2 1 1 1 2 1 1 1 1 1 1 1 1 1 2 2 3 3 2 2 2 2 2 2 2 1 2 1 1 1 2 2 2 2 2 2 2 1 1 1 1 2 3
2 2 2 2 2 2 1 1 1 1 1 1 1 1 2 2 3 2 2 2 2 2 2 2 2 2 2 2 1 1 1 2 3 2 3 2 2 2 2 1 1 2 3
2 2 2 2 2 2 1 1 2 2 2 2 2 1 2 2 2 2 2 2 2 2 2 2 2 2 2 3 2 2 2 1 1 3 3 3 2 2 2 2 2 2 2
2 2 1 1 1 1 1 2 2 2 2 1 1 1 2 1 2 2 2 2 2 2 2 2 2 2 2 3 2 2 2 2 2 2 4 3 2 2 2 3 2 1 1
2 1 1 1 1 1 1 1 1 2 2 1 1 2 2 2 2 3 3 2 2 2 2 3 3 3 3 3 3 2 2 2 2 2 3 3 4 3 3 3 2 1 1
Wind_Direction
108 107 113 102 95 87 79 74 69 64 59 55 53 51 52 49 47 47 47 46 50 51 53 53 50 47 47 48 47 46 47 45 44 47 50 55 60 60 56 53 59 65 66
116 115 117 107 100 94 84 77 72 67 60 55 52 52 52 49 46 45 45 45 49 53 55 51 48 46 46 47 48 47 44 42 37 35 38 51 64 62 56 53 55 64 62
113 116 116 109 101 95 88 79 73 69 62 55 51 52 50 48 43 43 42 44 44 48 51 50 48 45 47 46 45 42 38 34 22 8 9 40 76 65 56 52 54 57 53
106 107 112 110 103 95 88 79 72 66 60 54 51 49 45 42 40 39 40 37 38 43 45 45 46 48 48 47 42 35 26 13 358 352 3 39 65 66 58 50 50 49 47
106 106 111 112 104 98 90 81 71 64 56 49 49 47 42 38 37 40 35 32 30 36 39 35 43 48 46 42 37 27 12 356 348 348 4 43 60 59 54 47 43 47 51
109 105 112 117 109 102 93 83 74 65 55 49 49 47 42 36 36 38 34 31 27 28 32 32 36 37 39 35 27 16 359 345 339 350 15 46 57 50 43 39 37 39 48
110 106 115 117 113 106 97 87 74 62 57 54 49 46 40 35 35 33 31 26 22 24 30 27 29 22 22 22 14 1 348 339 335 356 23 41 49 44 35 34 29 33 34
105 105 117 121 119 114 103 91 76 63 57 54 44 42 34 29 33 36 31 26 23 20 17 16 17 9 2 5 356 345 334 331 333 352 27 39 30 27 25 25 25 20 23
101 103 111 122 129 129 119 102 90 69 53 44 35 35 28 22 25 32 26 21 19 9 1 0 355 347 342 341 340 331 319 318 327 327 2 41 19 12 14 15 12 8 6
96 97 106 108 116 122 124 127 113 99 66 29 22 26 21 15 16 24 21 18 9 359 354 341 335 327 317 316 316 310 306 309 314 319 6 35 4 349 347 354 349 343 347
95 93 95 97 84 97 126 143 133 132 125 20 349 349 2 359 8 35 15 12 353 346 341 329 322 314 305 295 291 292 298 299 310 329 11 6 309 319 317 325 327 328 330
129 111 92 82 87 82 119 123 148 177 182 215 221 178 345 345 351 351 294 313 317 322 318 306 301 301 302 288 278 282 293 300 310 326 324 274 270 295 293 302 307 310 315
126 102 98 90 81 114 104 140 169 186 206 237 252 291 275 353 325 326 303 298 290 311 313 307 295 293 297 302 297 283 288 304 308 326 307 285 278 286 284 288 295 298 297
134 132 114 98 72 353 16 228 175 158 222 196 167 280 326 49 331 328 337 295 299 313 307 305 295 290 294 296 295 299 307 312 304 300 259 279 279 281 278 285 291 294 292
158 153 149 142 139 359 291 245 199 206 268 217 202 259 298 323 270 302 300 300 312 318 308 303 308 303 289 291 294 298 303 305 305 297 253 260 268 276 278 284 289 294 294
176 154 156 157 168 217 291 264 232 208 230 210 198 256 288 298 303 300 285 305 313 306 296 296 294 292 271 274 281 293 297 303 302 291 252 249 256 271 272 280 287 292 297
183 163 162 173 152 240 273 259 253 237 224 194 194 237 289 307 292 300 296 289 307 302 301 306 299 304 281 282 283 287 289 295 287 277 269 237 237 269 278 286 291 291 293
183 173 163 182 182 225 268 283 285 281 256 243 194 204 256 286 288 294 290 285 296 300 304 288 286 298 290 292 292 292 288 279 276 265 258 243 236 263 280 286 292 293 294
180 178 163 165 181 210 250 268 264 263 259 243 208 193 224 251 271 282 285 284 294 300 290 289 300 301 296 300 293 282 281 270 266 258 249 218 211 219 261 291 288 293 296
167 167 171 163 174 195 213 238 266 250 265 278 259 231 232 236 257 274 278 281 282 272 274 275 275 282 274 275 289 289 278 267 257 245 253 228 213 214 242 284 294 297 297
157 159 182 175 183 182 201 228 244 242 252 266 261 265 249 244 256 264 277 282 276 256 254 255 259 276 288 287 296 301 280 257 234 237 248 260 260 225 248 257 295 298 304
162 161 186 198 190 196 209 221 239 239 243 239 253 280 269 260 254 256 253 261 269 260 256 250 260 254 266 256 230 285 298 305 287 255 233 242 253 238 268 283 285 317 310
178 194 208 216 203 206 208 187 250 274 285 256 261 257 266 265 263 262 258 264 264 252 231 223 231 234 250 258 232 201 223 270 306 277 252 239 245 248 254 259 259 280 297
193 199 202 198 194 205 195 187 210 227 233 246 239 247 270 258 263 261 272 274 268 250 222 227 219 238 245 247 260 255 247 228 246 299 283 261 251 254 262 276 265 253 270
169 178 197 181 191 218 215 206 227 245 245 260 258 255 274 272 249 266 270 267 264 246 223 231 237 248 252 243 243 254 262 266 247 233 276 293 299 273 265 268 260 254 277
137 153 179 173 191 215 234 222 234 239 232 238 257 259 276 275 259 249 258 253 258 245 223 227 232 239 255 256 248 242 233 234 232 231 255 285 291 291 292 278 254 235 263
Height
1506 1507 1508 1509 1509 1510 1511 1511 1512 1512 1513 1513 1513 1514 1514 1514 1514 1514 1514 1515 1515 1515 1515 1516 1516 1516 1516 1516 1516 1516 1517 1517 1517 1517 1518 1518 1518 1518 1518 1518 1518 1518 1519
1505 1506 1507 1508 1509 1510 1510 1511 1512 1512 1513 1513 1513 1514 1514 1514 1514 1514 1514 1514 1515 1515 1515 1515 1516 1516 1516 1516 1516 1516 1516 1517 1517 1517 1518 1518 1518 1518 1518 1518 1518 1518 1518
1504 1505 1506 1507 1508 1509 1510 1510 1511 1512 1512 1513 1513 1513 1514 1514 1514 1514 1514 1514 1514 1515 1515 1515 1515 1515 1515 1515 1516 1516 1516 1516 1517 1517 1517 1518 1518 1518 1518 1518 1518 1518 1518
1504 1505 1506 1507 1508 1509 1509 1510 1511 1511 1512 1512 1513 1513 1513 1513 1513 1513 1513 1514 1514 1514 1514 1514 1514 1514 1515 1515 1515 1515 1516 1516 1516 1517 1517 1517 1517 1517 1517 1517 1517 1517 1517
1504 1504 1505 1506 1507 1508 1509 1510 1510 1511 1511 1512 1512 1512 1512 1513 1513 1513 1513 1513 1513 1513 1513 1514 1514 1514 1514 1514 1514 1515 1515 1516 1516 1516 1516 1516 1516 1517 1517 1517 1516 1516 1517
1503 1504 1505 1506 1507 1508 1508 1509 1509 1510 1510 1511 1511 1511 1512 1512 1512 1512 1512 1512 1512 1513 1513 1513 1513 1513 1513 1513 1513 1514 1514 1515 1515 1515 1515 1515 1515 1516 1516 1516 1515 1515 1516
1503 1503 1504 1505 1506 1507 1507 1508 1508 1509 1509 1510 1510 1510 1510 1511 1511 1511 1511 1511 1511 1512 1512 1512 1512 1512 1512 1512 1512 1513 1513 1513 1514 1514 1514 1514 1514 1514 1515 1515 1514 1514 1514
1502 1503 1503 1504 1505 1506 1506 1507 1507 1508 1508 1509 1509 1509 1509 1509 1509 1510 1510 1510 1510 1511 1511 1511 1511 1511 1511 1511 1511 1511 1512 1512 1512 1512 1512 1512 1513 1513 1513 1513 1513 1513 1513
1502 1502 1502 1503 1504 1505 1505 1506 1506 1507 1507 1507 1508 1508 1508 1508 1508 1508 1509 1509 1509 1509 1509 1509 1509 1509 1509 1509 1510 1510 1510 1510 1510 1511 1511 1511 1511 1512 1512 1512 1512 1512 1511
1501 1501 1502 1502 1503 1503 1504 1504 1505 1505 1506 1506 1506 1506 1506 1507 1507 1507 1507 1507 1508 1508 1508 1508 1508 1508 1508 1508 1508 1508 1509 1509 1509 1509 1509 1509 1509 1510 1510 1510 1510 1510 1510
1499 1500 1500 1501 1502 1502 1503 1503 1503 1504 1504 1504 1504 1505 1505 1505 1505 1505 1505 1506 1506 1506 1506 1506 1506 1506 1506 1506 1506 1507 1507 1507 1506 1507 1507 1507 1507 1508 1508 1508 1508 1508 1508
1497 1498 1499 1499 1500 1501 1501 1501 1501 1502 1502 1502 1502 1503 1503 1503 1503 1503 1503 1504 1504 1504 1504 1504 1504 1504 1504 1504 1504 1504 1504 1504 1504 1505 1505 1505 1505 1505 1506 1506 1506 1505 1505
1496 1497 1497 1498 1498 1499 1499 1499 1499 1499 1500 1500 1500 1501 1501 1501 1501 1501 1501 1501 1501 1501 1501 1501 1501 1501 1501 1501 1502 1502 1502 1502 1502 1502 1502 1503 1503 1503 1503 1503 1503 1503 1503
1493 1494 1495 1496 1496 1497 1497 1497 1497 1497 1497 1498 1498 1498 1499 1499 1499 1499 1499 1499 1499 1499 1498 1498 1498 1498 1498 1499 1499 1499 1499 1499 1499 1500 1499 1500 1500 1500 1500 1500 1500 1500 1500
1491 1492 1493 1493 1494 1494 1494 1495 1495 1495 1495 1495 1495 1496 1496 1496 1496 1497 1497 1497 1496 1496 1496 1496 1495 1495 1495 1496 1496 1496 1496 1497 1496 1497 1497 1497 1497 1497 1497 1497 1497 1497 1497
1489 1490 1490 1491 1491 1492 1492 1492 1492 1492 1493 1493 1493 1493 1494 1494 1494 1494 1494 1494 1494 1494 1494 1493 1493 1493 1492 1492 1493 1493 1493 1493 1493 1493 1494 1494 1494 1494 1494 1494 1494 1494 1494
1487 1487 1488 1488 1489 1489 1489 1489 1489 1490 1490 1490 1490 1491 1491 1491 1491 1491 1491 1491 1491 1491 1491 1491 1490 1490 1490 1489 1489 1490 1490 1490 1490 1490 1490 1490 1491 1491 1491 1491 1491 1491 1491
1484 1484 1485 1485 1486 1486 1486 1486 1487 1487 1487 1487 1488 1488 1488 1488 1488 1488 1488 1488 1488 1488 1488 1487 1487 1487 1487 1486 1486 1486 1487 1487 1487 1487 1487 1487 1487 1487 1487 1487 1487 1487 1487
1481 1482 1482 1482 1482 1483 1483 1483 1484 1484 1484 1484 1485 1485 1485 1485 1485 1485 1484 1484 1484 1484 1484 1484 1484 1484 1483 1483 1483 1483 1483 1483 1483 1483 1483 1483 1483 1483 1484 1484 1483 1483 1484
1478 1479 1479 1479 1479 1480 1480 1480 1480 1481 1481 1481 1482 1482 1482 1482 1481 1481 1481 1480 1481 1481 1481 1480 1480 1480 1480 1480 1480 1479 1480 1480 1479 1480 1480 1480 1480 1480 1480 1480 1480 1480 1480
1475 1475 1476 1476 1477 1477 1477 1477 1477 1477 1478 1478 1478 1478 1478 1478 1478 1477 1477 1477 1477 1477 1476 1476 1476 1476 1477 1477 1477 1476 1476 1476 1476 1476 1477 1477 1477 1477 1477 1477 1477 1477 1476
1472 1472 1473 1473 1473 1474 1474 1474 1474 1474 1474 1475 1475 1475 1475 1475 1474 1473 1473 1473 1472 1472 1472 1472 1473 1473 1474 1475 1474 1474 1474 1474 1473 1473 1474 1474 1474 1474 1474 1474 1474 1473 1473
1468 1469 1469 1470 1470 1471 1471 1471 1471 1471 1471 1471 1471 1471 1471 1471 1470 1470 1470 1469 1469 1468 1468 1469 1469 1470 1470 1471 1472 1473 1472 1471 1470 1470 1471 1471 1471 1471 1471 1470 1470 1470 1470
1465 1466 1466 1467 1467 1468 1468 1467 1467 1467 1467 1467 1467 1467 1467 1467 1467 1466 1466 1465 1465 1465 1465 1466 1466 1467 1468 1468 1469 1470 1471 1470 1469 1467 1467 1468 1468 1468 1467 1467 1467 1467 1466
1462 1463 1463 1464 1464 1464 1465 1464 1464 1464 1464 1464 1464 1464 1463 1463 1463 1462 1462 1462 1461 1461 1462 1462 1463 1464 1465 1465 1465 1466 1467 1467 1467 1467 1464 1464 1464 1464 1464 1464 1463 1463 1463
1459 1459 1460 1460 1461 1461 1461 1461 1461 1461 1461 1461 1460 1460 1460 1459 1459 1459 1459 1458 1458 1458 1459 1459 1460 1460 1461 1462 1461 1462 1463 1463 1463 1463 1462 1460 1460 1460 1460 1460 1460 1460 1459